User: anonymous   Login
Location: Asbacherhof
(48.8543°N, 10.7903°E)
Time: 05:41:01
(UTC+00:00)
Language:

Cosmos 1461 - Orbit

View from above orbital plane
View from above orbital plane
View from above satellite
View from above satellite

Ground track
Ground track

The orbit data is extracted from the following two-line orbital elements,

1 14064U 83044A   22222.49387102  .00003002  00000-0  25389-3 0  9993
2 14064  64.9991 217.1679 0092418   8.1862 352.0736 14.96769908  4332
Epoch (UTC): 10 August 2022 11:51:10
Eccentricity: 0.0092418
inclination: 64.9991°
perigee height: 512 km
apogee height: 641 km
right ascension of ascending node: 217.1679°
argument of perigee: 8.1862°
revolutions per day: 14.96769908
mean anomaly at epoch: 352.0736°
orbit number at epoch: 433

The dashed part of the orbit path shows where the satellite is in the earth's shadow,  

DLR